This is the latest recevied weather packets stored in our database for station/object KN6RO-14. If no packets are shown the sender has not sent any weather packets the latest 10 day(s).
| Time | Temp. | Humidity | Pressure | Rain* | Wind** | Luminosity | Snow |
|---|---|---|---|---|---|---|---|
| 1777109074 | 18.33° C | 68% | 1008.3 hPa | 0 mm | - | - | - |
| 1777107274 | 18.33° C | 68% | 1008.4 hPa | 0 mm | - | - | - |
| 1777105474 | 18.33° C | 69% | 1008.5 hPa | 0 mm | - | - | - |
| 1777103674 | 18.33° C | 68% | 1008.5 hPa | 0 mm | - | - | - |
| 1777101874 | 18.89° C | 68% | 1008.5 hPa | 0 mm | - | - | - |
| 1777100074 | 18.89° C | 68% | 1009 hPa | 0 mm | - | - | - |
| 1777098274 | 18.89° C | 67% | 1009.5 hPa | 0 mm | - | - | - |
| 1777096474 | 18.89° C | 66% | 1009.7 hPa | 0 mm | - | - | - |
| 1777094674 | 18.89° C | 66% | 1009.8 hPa | 0 mm | - | - | - |
| 1777092874 | 18.33° C | 67% | 1009.7 hPa | 0 mm | - | - | - |
| 1777091074 | 18.89° C | 65% | 1009.5 hPa | 0 mm | - | - | - |
| 1777089274 | 18.89° C | 64% | 1009.8 hPa | 0 mm | - | - | - |
| 1777087475 | 19.44° C | 62% | 1009.6 hPa | 0 mm | - | - | - |
| 1777085675 | 19.44° C | 60% | 1009.6 hPa | 0 mm | - | - | - |
| 1777083875 | 20° C | 58% | 1009.8 hPa | 0 mm | - | - | - |
| 1777082075 | 19.44° C | 58% | 1009.7 hPa | 0 mm | - | - | - |
| 1777080275 | 20° C | 58% | 1009.6 hPa | 0 mm | - | - | - |
| 1777078475 | 20° C | 58% | 1009.3 hPa | 0 mm | - | - | - |
| 1777076675 | 20.56° C | 55% | 1009.3 hPa | 0 mm | - | - | - |
| 1777074875 | 20.56° C | 56% | 1009.3 hPa | 0 mm | - | - | - |
| 1777073075 | 21.11° C | 56% | 1009.4 hPa | 0 mm | - | - | - |
| 1777071275 | 22.22° C | 57% | 1009.2 hPa | 0 mm | - | - | - |
| 1777069475 | 22.78° C | 56% | 1009.3 hPa | 0 mm | - | - | - |
| 1777067675 | 23.33° C | 51% | 1009.4 hPa | 0 mm | - | - | - |
| 1777065875 | 23.33° C | 52% | 1009.4 hPa | 0 mm | - | - | - |
* Rain latest hour (hover to see other rain measurements)
** Current wind speed in m/s (hover to see current wind gust speed)